User: anonymous   Login
Location: Caltech
(34.1382°N, 118.1253°W)
Time: 07:51:58
(UTC-08:00)
Language:

Uribyol 2 - Orbit

View from above orbital plane
View from above orbital plane
View from above satellite
View from above satellite

Ground track
Ground track

The orbit data is extracted from the following two-line orbital elements,

1 22828U 93061F   15058.45055549  .00000192  00000-0  90813-4 0  9994
2 22828 098.6821 007.9905 0008975 228.6798 131.3613 14.30453933 85735
Epoch (UTC): 27 February 2015 10:48:47
Eccentricity: 0.0008975
inclination: 98.6821°
perigee height: 784 km
apogee height: 796 km
right ascension of ascending node: 7.9905°
argument of perigee: 228.6798°
revolutions per day: 14.30453933
mean anomaly at epoch: 131.3613°
orbit number at epoch: 8573

The dashed part of the orbit path shows where the satellite is in the earth's shadow,  

DLR